Torna al catalogo

STARLINK-11566

AttivoComunicazioniVLEO
NORAD 62914·PAYLOAD·🇺🇸 United States

Lanciato Feb 8, 2025 da Cape Canaveral Space Force Station

Loading…

Prossimi Passaggi (prossime 24 ore)

TLE

AggiornatoSource: CelesTrak SupGP

Epoca: Sep 14, 2026, 20:59 UTC

1 62914C 25027H   26257.87479167 -.00045573  00000+0 -35408-3 0  2574
2 62914  43.0006 287.5732 0001572 253.7552  89.2005 15.70853248    13

Traccia STARLINK-11566 in tempo reale con AllMySat

Download on the App Store